星链-37290(STARLINK-37290)

导读

STARLINK-37290(NORAD编号68546)是美国SpaceX公司星链(Starlink)星座的一颗低轨互联网通信卫星,属于全球大规模低轨卫星互联网组网计划的组成部分。星链项目旨在构建覆盖全球的低时延、高速天基通信网络,为全球提供宽带互联网接入服务。该卫星运行在近地轨道,采用Ku/Ka通信频段,与其他星链卫星协同工作,支撑消费级互联网服务及特殊领域通信需求,是SpaceX星链星座持续扩容过程中部署的卫星单元,推动全球卫星互联网的覆盖能力建设。

Basic Information
目录编号:
68546
目录名称:
STARLINK-37290
国际标识:
2026-070E
轨道中心:
EARTH
卫星名称:
星链-37290
卫星全名:
星链-37290(STARLINK-37290)
卫星状态:
在轨 (已飞行162 天)
发射日期:
2026-04-02 UTC
国别 :
美国 (US)
星等 :
--
This satellite is enrolled in the Space Conjunction Data Service (SCDS) and the current flight risk assessment level is: High Risk
Orbit Information
数据来源 国际轨道数据
星历时间: 2026-09-11T15:25:04+0800
13小时前
查看轨道信息
半长轴: 6840.756km
偏心率: 0.0002784
轨道倾角: 53.160°
近地点辐角 230.579°
升交点赤经 216.864°
平近点角 129.496°
近地点: 460.714km
远地点: 464.524km
周期: 93.846分钟
每日圈数: 15.344285
Detailed Information
固有亮度:
5
最大亮度:
2.5
卫星平台:
Starlink V1.0
覆盖范围:
全球
运营商:
太空探索技术公司
运营商所在国:
美国
制造商(研发单位):
太空探索技术公司
制造商所在国:
美国
使用方式:
暂无
Satellite Introduction
Starlink 计划是 SpaceX 推出的全球卫星互联网项目,通过发射低轨道卫星,为全球尤其是偏远地区提供高速、低延迟的互联网服务。自 2019 年起,Starlink 已部署数千颗卫星,旨在缩小全球数字鸿沟,推动互联网普及。该项目还为军事、航空等行业提供通信支持,带来广泛经济效益。
2D Orbit Map
3D Orbit Map
Orbit Altitude Analysis Chart
Orbit Inclination Analysis Chart
Orbit Comprehensive Analysis Chart
View Comprehensive Chart
Conjunction Data List
Event ID Objects TCA Miss Dist (km) Collision Risk Probability Collision Risk Index (CRI) Action
CDM_260911-185106-034606-854624
2026-09-11T
18:51:24+0000
0.452 km
远距离
1.741292E-4 高风险 0.8
CDM_260911-190305-921006-854622
2026-09-11T
19:03:07+0000
0.583 km
远距离
1.238874E-4 高风险 0.77
CDM_260913-114706-472706-854621
2026-09-13T
11:47:00+0000
0.686 km
远距离
8.005201E-5 中风险 0.73
CDM_260912-154906-461206-854621
2026-09-12T
15:49:03+0000
0.499 km
远距离
7.407667E-5 中风险 0.72
CDM_260913-071006-532506-854621
2026-09-13T
07:10:43+0000
0.710 km
远距离
7.087251E-5 中风险 0.72
CDM_260913-052706-854606-996121
2026-09-13T
05:27:18+0000
0.806 km
远距离
4.827212E-5 中风险 0.69
CDM_260912-042606-854606-982021
2026-09-12T
04:26:16+0000
0.877 km
远距离
3.656189E-5 中风险 0.66
CDM_260912-191605-921006-854621
2026-09-12T
19:16:50+0000
0.876 km
远距离
3.651103E-5 中风险 0.66
CDM_260912-032706-034606-854622
2026-09-12T
03:27:15+0000
0.805 km
远距离
3.488982E-5 中风险 0.66
CDM_260912-025206-854606-982021
2026-09-12T
02:52:29+0000
0.990 km
远距离
2.424285E-5 中风险 0.63
Miss Distance Evolution Trend with All Objects
Collision Probability Evolution Trend with All Objects